Latest Weather Observations for Montague Island

IDN60801

Issued at 7:32 am EST Friday 26 May 2017 (issued every 30 minutes, with the page automatically refreshed every 10 minutes)

About weather observations | Map of weather stations | Latest weather observations for NSW | Other Formats
Station Details ID: 069017 Name: MONTAGUE ISLAND LIGHTHOUSE Lat: -36.25 Lon: 150.23 Height: 52.0 m
Data from the previous 72 hours. | See also: Recent months at Montague Island
Date/Time
EST
Temp
°C
App
Temp
°C
Dew
Point
°C
Rel
Hum
%
Delta-T
°C
Wind Press
QNH
hPa
Press
MSL
hPa
Rain since
9am
mm
Dir  Spd
km/h
Gust
km/h
Spd
kts
Gust
kts
26/07:30am 14.3 11.7 9.3 72 2.6 WNW 13 15 7 8 1020.2 1020.1 0.0
26/07:00am 13.4 11.2 9.5 77 2.0 WNW 11 15 6 8 1020.0 1019.9 0.0
26/06:30am 13.6 12.0 10.2 80 1.8 WNW 9 11 5 6 1019.7 1019.6 0.0
26/06:00am 13.5 11.8 9.9 79 1.9 W 9 13 5 7 1019.4 1019.3 0.0
26/05:30am 13.5 12.3 10.3 81 1.7 W 7 11 4 6 1019.2 1019.1 0.0
26/05:00am 13.7 12.7 11.0 84 1.4 W 7 9 4 5 1019.0 1018.9 0.0
26/04:30am 13.9 13.1 11.8 87 1.1 W 7 9 4 5 1018.8 1018.7 0.0
26/04:00am 13.7 12.7 11.0 84 1.4 W 7 9 4 5 1018.9 1018.8 0.0
26/03:30am 13.6 12.5 10.8 83 1.5 W 7 11 4 6 1018.7 1018.6 0.0
26/03:00am 14.1 13.1 11.1 82 1.6 WSW 7 9 4 5 1018.7 1018.6 0.0
26/02:30am 14.3 13.2 10.7 79 1.9 WSW 7 9 4 5 1018.8 1018.7 0.0
26/02:00am 14.0 12.6 10.8 81 1.7 SW 9 13 5 7 1018.8 1018.7 0.0
26/01:30am 14.3 12.9 10.9 80 1.8 SW 9 13 5 7 1018.9 1018.8 0.0
26/01:00am 14.7 13.2 10.7 77 2.1 WSW 9 13 5 7 1018.8 1018.7 0.0
26/12:30am 14.5 13.3 10.3 76 2.2 WSW 7 11 4 6 1018.8 1018.7 0.0
26/12:00am 14.9 13.8 10.5 75 2.3 WSW 7 11 4 6 1019.0 1018.9 0.0
 
Date/Time
EST
Temp
°C
App
Temp
°C
Dew
Point
°C
Rel
Hum
%
Delta-T
°C
Wind Press
QNH
hPa
Press
MSL
hPa
Rain since
9am
mm
Dir  Spd
km/h
Gust
km/h
Spd
kts
Gust
kts
25/11:30pm 14.8 13.3 10.6 76 2.2 SW 9 13 5 7 1019.1 1019.0 0.0
25/11:00pm 14.9 13.3 10.1 73 2.5 WSW 9 13 5 7 1019.1 1019.0 0.0
25/10:30pm 14.7 13.2 10.5 76 2.2 W 9 13 5 7 1019.0 1018.9 0.0
25/10:00pm 14.7 13.5 10.3 75 2.3 W 7 11 4 6 1019.0 1018.9 0.0
25/09:30pm 14.9 13.8 10.7 76 2.2 WNW 7 11 4 6 1019.1 1019.0 0.0
25/09:00pm 15.2 14.3 10.8 75 2.3 NW 6 9 3 5 1018.7 1018.6 0.0
25/08:30pm 15.1 14.0 10.5 74 2.4 W 7 9 4 5 1018.9 1018.8 0.0
25/08:00pm 16.0 14.5 9.2 64 3.5 N 7 9 4 5 1018.9 1018.8 0.0
25/07:30pm 16.1 14.6 9.3 64 3.5 NNE 7 11 4 6 1018.8 1018.7 0.0
25/07:00pm 16.1 14.6 9.3 64 3.5 NE 7 11 4 6 1018.8 1018.7 0.0
25/06:30pm 16.1 14.6 9.3 64 3.5 NE 7 11 4 6 1018.6 1018.5 0.0
25/06:00pm 16.2 14.6 8.9 62 3.7 ENE 7 13 4 7 1018.4 1018.3 0.0
25/05:30pm 16.1 14.4 8.3 60 4.0 ENE 7 13 4 7 1018.1 1018.0 0.0
25/05:00pm 16.0 14.0 8.7 62 3.7 E 9 13 5 7 1018.1 1018.0 0.0
25/04:30pm 16.1 14.0 8.3 60 4.0 E 9 13 5 7 1017.9 1017.8 0.0
25/04:00pm 16.2 14.3 7.7 57 4.3 E 7 13 4 7 1017.7 1017.6 0.0
25/03:30pm 16.7 14.8 7.6 55 4.6 ENE 7 13 4 7 1017.8 1017.7 0.0
25/03:00pm 17.1 15.3 8.0 55 4.6 E 7 13 4 7 1017.9 1017.8 0.0
25/02:30pm 17.3 15.4 7.6 53 4.9 ENE 7 11 4 6 1017.7 1017.6 0.0
25/02:00pm 17.1 14.9 7.7 54 4.7 E 9 13 5 7 1018.1 1018.0 0.0
25/01:30pm 17.3 15.0 7.4 52 5.0 ESE 9 13 5 7 1018.2 1018.1 0.0
25/01:00pm 17.2 15.0 6.1 48 5.4 ESE 7 11 4 6 1018.4 1018.3 0.0
25/12:30pm 17.1 14.9 6.3 49 5.3 ESE 7 13 4 7 1018.7 1018.6 0.0
25/12:00pm 17.2 14.7 6.4 49 5.3 SE 9 13 5 7 1019.3 1019.2 0.0
25/11:30am 17.7 15.6 6.6 48 5.5 S 7 11 4 6 1019.7 1019.6 0.0
25/11:00am 17.8 16.2 7.8 52 5.1 SW 6 9 3 5 1020.1 1020.0 0.0
25/10:30am 17.9 16.4 9.0 56 4.6 WSW 7 11 4 6 1020.3 1020.2 0.0
25/10:00am 17.4 15.7 8.3 55 4.6 WSW 7 9 4 5 1020.4 1020.3 0.0
25/09:30am 16.7 14.5 9.4 62 3.8 W 11 15 6 8 1020.3 1020.2 0.0
25/09:00am 16.3 14.1 9.3 63 3.6 W 11 15 6 8 1020.2 1020.1 0.0
25/08:30am 14.9 11.7 8.4 65 3.3 W 15 19 8 10 1020.2 1020.1 0.0
25/08:00am 14.0 10.4 8.2 68 2.9 W 17 20 9 11 1019.9 1019.8 0.0
25/07:30am 13.1 9.5 8.2 72 2.4 W 17 20 9 11 1019.8 1019.7 0.0
25/07:00am 12.6 8.9 7.9 73 2.3 W 17 20 9 11 1019.4 1019.3 0.0
25/06:30am 12.6 8.5 7.9 73 2.3 W 19 22 10 12 1018.9 1018.8 0.0
25/06:00am 12.8 9.5 8.1 73 2.3 W 15 19 8 10 1018.5 1018.4 0.0
25/05:30am 12.6 9.3 7.9 73 2.3 W 15 17 8 9 1018.5 1018.4 0.0
25/05:00am 12.8 9.9 8.3 74 2.2 W 13 19 7 10 1018.4 1018.3 0.0
25/04:30am 12.9 9.7 8.4 74 2.2 W 15 17 8 9 1018.3 1018.2 0.0
25/04:00am 13.2 10.9 9.1 76 2.1 WNW 11 15 6 8 1018.4 1018.3 0.0
25/03:30am 13.5 11.2 9.0 74 2.3 W 11 13 6 7 1018.3 1018.2 0.0
25/03:00am 14.0 11.3 7.5 65 3.2 WSW 11 15 6 8 1018.2 1018.1 0.0
25/02:30am 13.9 11.0 8.1 68 2.9 SW 13 17 7 9 1018.4 1018.3 0.0
25/02:00am 13.9 10.9 7.9 67 3.0 SW 13 17 7 9 1018.1 1018.0 0.0
25/01:30am 14.2 10.8 7.5 64 3.3 SW 15 19 8 10 1018.0 1017.9 0.0
25/01:00am 14.4 10.7 7.9 65 3.2 SW 17 19 9 10 1017.8 1017.7 0.0
25/12:30am 14.7 10.5 7.5 62 3.6 SW 19 22 10 12 1017.8 1017.7 0.0
25/12:00am 14.9 10.9 8.2 64 3.4 SW 19 22 10 12 1017.9 1017.8 0.0
 
Date/Time
EST
Temp
°C
App
Temp
°C
Dew
Point
°C
Rel
Hum
%
Delta-T
°C
Wind Press
QNH
hPa
Press
MSL
hPa
Rain since
9am
mm
Dir  Spd
km/h
Gust
km/h
Spd
kts
Gust
kts
24/11:30pm 15.1 11.0 8.6 65 3.3 SW 20 26 11 14 1017.9 1017.8 0.0
24/11:00pm 14.9 11.9 10.5 75 2.3 SW 17 22 9 12 1017.8 1017.7 0.0
24/10:30pm 15.6 12.6 10.6 72 2.7 SSW 17 22 9 12 1017.6 1017.5 0.0
24/10:00pm 15.7 12.3 10.7 72 2.7 SSW 19 22 10 12 1017.3 1017.2 0.0
24/09:30pm 15.8 13.0 11.2 74 2.5 SSW 17 22 9 12 1017.2 1017.1 0.0
24/09:00pm 15.8 12.8 10.6 71 2.8 SW 17 20 9 11 1017.0 1016.9 0.0
24/08:30pm 16.0 13.1 11.0 72 2.7 SW 17 20 9 11 1016.6 1016.5 0.0
24/08:00pm 16.5 12.8 11.4 72 2.8 SSW 22 28 12 15 1016.3 1016.2 0.0
24/07:30pm 16.7 13.5 11.4 71 2.9 SSW 19 24 10 13 1016.0 1015.9 0.0
24/07:00pm 16.8 13.8 11.9 73 2.7 S 19 22 10 12 1015.7 1015.6 0.0
24/06:30pm 16.9 13.7 11.2 69 3.1 S 19 22 10 12 1015.2 1015.1 0.0
24/06:00pm 17.4 14.3 11.7 69 3.1 S 19 22 10 12 1014.8 1014.7 0.0
24/05:30pm 17.3 15.6 12.4 73 2.7 SSE 13 17 7 9 1014.1 1014.0 0.0
24/05:00pm 17.3 15.6 12.6 74 2.6 SSE 13 17 7 9 1013.7 1013.6 0.0
24/04:30pm 17.3 15.6 12.4 73 2.7 SE 13 17 7 9 1013.1 1013.0 0.0
24/04:00pm 17.3 15.3 12.6 74 2.6 SE 15 19 8 10 1012.5 1012.5 0.0
24/03:30pm 17.4 14.6 12.5 73 2.7 SE 19 20 10 11 1012.0 1012.0 0.0
24/03:00pm 17.7 15.0 12.8 73 2.7 SSE 19 20 10 11 1011.6 1011.6 0.0
24/02:30pm 17.8 14.9 12.9 73 2.7 SE 20 22 11 12 1011.1 1011.1 0.0
24/02:00pm 18.4 15.8 11.9 66 3.6 SE 17 22 9 12 1010.8 1010.8 0.0
24/01:30pm 18.4 16.9 11.9 66 3.6 SSE 11 15 6 8 1010.6 1010.6 0.0
24/01:00pm 18.5 16.8 11.3 63 3.9 SSE 11 13 6 7 1010.5 1010.5 0.0
24/12:30pm 19.7 18.2 10.7 56 4.9 S 9 13 5 7 1010.6 1010.6 0.0
24/12:00pm 20.5 17.7 10.0 51 5.7 W 15 19 8 10 1010.7 1010.7 0.0
24/11:30am 20.0 16.9 10.4 54 5.2 W 17 20 9 11 1010.9 1010.9 0.0
24/11:00am 19.3 17.1 10.8 58 4.6 WNW 13 17 7 9 1011.3 1011.3 0.0
24/10:30am 18.5 15.2 10.8 61 4.2 WNW 19 24 10 13 1011.3 1011.3 0.0
24/10:00am 17.7 15.1 10.8 64 3.7 W 15 20 8 11 1011.5 1011.5 0.0
24/09:30am 17.0 14.4 10.8 67 3.3 WNW 15 20 8 11 1011.7 1011.7 0.0
24/09:00am 16.1 13.5 10.6 70 2.9 W 15 20 8 11 1011.7 1011.7 0.4
24/08:30am 15.6 12.8 11.2 75 2.4 WNW 17 22 9 12 1011.7 1011.7 0.4
24/08:00am 14.8 12.5 11.8 82 1.6 NW 15 20 8 11 1011.6 1011.6 0.4
24/07:30am 14.7 12.7 11.5 81 1.7 WNW 13 19 7 10 1012.1 1012.1 0.4
24/07:00am 15.2 13.7 10.6 74 2.4 WSW 9 15 5 8 1012.5 1012.5 0.2
24/06:30am 15.6 11.8 11.0 74 2.5 WSW 22 26 12 14 1012.3 1012.3 0.0
24/06:00am 15.3 12.2 11.7 79 1.9 W 19 26 10 14 1012.6 1012.6 0.0
24/05:30am 15.8 14.8 12.4 80 1.9 WNW 9 13 5 7 1011.6 1011.6 0.0
24/05:00am 15.8 14.8 12.2 79 2.0 NW 9 15 5 8 1010.9 1010.9 0.0
24/04:30am 15.8 14.5 12.4 80 1.9 NW 11 15 6 8 1011.3 1011.3 0.0
24/04:00am 16.2 14.1 12.4 78 2.1 NNW 15 20 8 11 1011.4 1011.4 0.0
24/03:30am 15.8 14.0 12.0 78 2.1 NNW 13 17 7 9 1011.5 1011.5 0.0
24/03:00am 16.3 14.9 13.4 83 1.6 NNW 13 17 7 9 1011.9 1011.9 0.0
24/02:30am 16.0 14.2 12.0 77 2.2 NW 13 17 7 9 1012.2 1012.2 0.0
24/02:00am 16.3 15.1 12.7 79 2.0 NNW 11 15 6 8 1012.4 1012.4 0.0
24/01:30am 16.4 14.4 11.6 73 2.6 NNW 13 15 7 8 1012.7 1012.7 0.0
24/01:00am 16.1 15.2 12.5 79 2.0 NNW 9 13 5 7 1013.2 1013.1 0.0
24/12:30am 16.0 15.3 13.3 84 1.5 NNW 9 13 5 7 1013.6 1013.5 0.0
24/12:00am 15.7 15.2 13.7 88 1.1 NNW 9 13 5 7 1014.1 1014.0 0.0
 
Date/Time
EST
Temp
°C
App
Temp
°C
Dew
Point
°C
Rel
Hum
%
Delta-T
°C
Wind Press
QNH
hPa
Press
MSL
hPa
Rain since
9am
mm
Dir  Spd
km/h
Gust
km/h
Spd
kts
Gust
kts
23/11:30pm 15.7 15.3 14.1 90 0.9 NW 9 13 5 7 1014.6 1014.5 0.0
23/11:00pm 15.7 15.0 14.4 92 0.7 NNW 11 15 6 8 1014.7 1014.6 0.0
23/10:30pm 16.4 15.9 14.8 90 0.9 NW 11 13 6 7 1014.8 1014.7 0.0
23/10:00pm 16.3 15.4 13.6 84 1.5 NNW 11 15 6 8 1014.8 1014.7 0.0
23/09:30pm 16.4 14.3 12.4 77 2.2 NW 15 19 8 10 1014.9 1014.8 0.0
23/09:00pm 16.7 14.7 12.7 77 2.2 NNW 15 19 8 10 1014.9 1014.8 0.0
23/08:30pm 17.0 15.2 13.3 79 2.1 NNW 15 19 8 10 1014.8 1014.7 0.0
23/08:00pm 17.8 15.4 14.5 81 1.9 N 20 24 11 13 1014.9 1014.8 0.0
23/07:30pm 18.6 16.7 15.7 83 1.7 N 20 28 11 15 1014.7 1014.6 0.0
23/07:00pm 19.0 17.0 17.3 90 1.0 NNE 24 30 13 16 1014.7 1014.6 0.0
23/06:30pm 19.0 16.5 17.1 89 1.2 NNE 26 33 14 18 1014.7 1014.6 0.0
23/06:00pm 19.0 16.1 17.0 88 1.2 NNE 28 33 15 18 1014.9 1014.8 0.0
23/05:30pm 19.1 16.5 16.9 87 1.3 NNE 26 33 14 18 1014.9 1014.8 0.0
23/05:00pm 19.1 17.3 16.0 82 1.8 NNE 20 26 11 14 1014.9 1014.8 0.0
23/04:30pm 19.1 17.3 16.1 83 1.8 NNE 20 26 11 14 1014.7 1014.6 0.0
23/04:00pm 19.2 17.5 15.7 80 2.1 NNE 19 24 10 13 1014.8 1014.7 0.0
23/03:30pm 19.3 17.8 15.4 78 2.3 NNE 17 22 9 12 1014.9 1014.8 0.0
23/03:00pm 19.3 18.5 15.0 76 2.5 N 13 17 7 9 1015.2 1015.1 0.0
23/02:30pm 19.4 19.2 14.6 74 2.8 N 9 17 5 9 1015.5 1015.4 0.0
23/02:00pm 18.8 18.2 14.7 77 2.4 NNW 11 13 6 7 1015.6 1015.5 0.0
23/01:30pm 18.6 18.4 14.7 78 2.3 NNW 9 15 5 8 1015.7 1015.6 0.0
23/01:00pm 18.5 18.0 14.8 79 2.2 NNW 11 15 6 8 1016.0 1015.9 0.0
23/12:30pm 18.1 17.9 14.6 80 2.0 NNW 9 15 5 8 1016.7 1016.6 0.0
23/12:00pm 17.3 16.8 13.8 80 2.0 N 9 13 5 7 1017.1 1017.0 0.0
23/11:30am 16.4 15.7 13.3 82 1.7 NNW 9 13 5 7 1017.8 1017.7 0.0
23/11:00am 16.7 16.1 13.6 82 1.7 NW 9 13 5 7 1018.4 1018.3 0.0
23/10:30am 16.0 15.2 12.9 82 1.7 NNW 9 15 5 8 1018.8 1018.7 0.0
23/10:00am 14.9 13.4 12.0 83 1.6 NNW 11 15 6 8 1019.2 1019.1 0.0
23/09:30am 14.6 13.2 12.1 85 1.4 NNW 11 15 6 8 1019.4 1019.3 0.0
23/09:00am 14.2 12.6 11.7 85 1.3 NNW 11 15 6 8 1019.6 1019.5 0.0
23/08:30am 13.8 12.3 11.8 88 1.1 NNW 11 15 6 8 1019.7 1019.6 0.0
23/08:00am 13.5 11.6 11.9 90 0.9 NNW 13 17 7 9 1019.6 1019.5 0.0

Other Formats:

Comma delimited format used in spreadsheet applications
http://www.bom.gov.au/fwo/IDN60801/IDN60801.94939.axf

JavaScript Object Notation format (JSON) in row-major order
http://www.bom.gov.au/fwo/IDN60801/IDN60801.94939.json